Regional Weather Roundup
Issued by NWS State College, PA

Home | Current Version | Previous Version | Text Only | Print | Product List | Glossary Off
Versions: 1 2 3 4 5 6 7 8 9 10 11 12 13 14 15 16 17 18 19 20 21 22 23 24 25 26 27 28 29 30 31 32 33 34 35 36 37 38 39 40 41 42 43 44 45 46 47 48 49 50

000
ASUS41 KCTP 042303
RWRCTP

REGIONAL WEATHER ROUNDUP
NATIONAL WEATHER SERVICE STATE COLLEGE PA
700 PM EDT MON MAY 04 2015

Note: "fair" indicates few or no clouds below 12,000 feet with no
significant weather and/or obstructions to visibility.

* = STATION THAT DOES NOT REPORT PRECIPITATION /E.G. RAIN...SNOW...ETC/
    THUNDER OR FOG.

PAZ002>004-007>009-013>016-020>023-029>032-050000-
WESTERN PENNSYLVANIA

CITY           SKY/WX    TMP DP  RH WIND       PRES   REMARKS
ERIE           LGT RAIN  63  58  83 SW7       30.14R
MEADVILLE      LGT RAIN  64  55  72 W10       30.18R
FRANKLIN*      CLOUDY    70  52  52 W8G17     30.18R
NEW CASTLE     LGT RAIN  71  55  56 W9        30.18R
BEAVER COUNTY  CLOUDY    77  45  31 W9        30.15
BUTLER*        MOSUNNY   75  46  35 SW9       30.15F
PITTSBURGH INT CLOUDY    79  46  31 SW12      30.14S
PITTSBURGH     MOSUNNY   77  42  28 SW14G20   30.14S
INDIANA*       PTSUNNY   77  50  38 W8G15     30.18S
LATROBE        PTSUNNY   77  48  36 W14       30.17R
WASHINGTON CO* MOSUNNY   75  48  38 SW8       30.18R
$$

PAZ004>006-010>012-017>019-024>028-033>037-041-042-045-046-049>053-050000-
CENTRAL PENNSYLVANIA

CITY           SKY/WX    TMP DP  RH WIND       PRES   REMARKS
BRADFORD       CLOUDY    73  43  33 W10       30.14S
DUBOIS         CLOUDY    75  46  35 W9        30.14S
CLEARFIELD     PTSUNNY   78  44  29 W8G21     30.14S
JOHNSTOWN      MOSUNNY   74  43  32 W15G25    30.18S
ALTOONA        PTSUNNY   77  44  30 W7        30.15S
STATE COLLEGE  PTSUNNY   77  45  31 W12       30.13R
WILLIAMSPORT   PTSUNNY   82  41  23 W9        30.06R
SELINSGROVE    MOSUNNY   79  48  33 S5        30.09S
FT INDIANTOWN  SUNNY     81  46  29 SW9       30.11S
CAPITAL CITY   SUNNY     80  47  31 S9        30.10F
HARRISBURG     PTSUNNY   82  45  27 VRB7G17   30.10F
YORK           SUNNY     79  47  32 S7        30.12F
$$

PAZ038>040-043-044-047-048-054-055-060>062-067>071-050000-
EASTERN PENNSYLVANIA

CITY           SKY/WX    TMP DP  RH WIND       PRES   REMARKS
SCRANTON       SUNNY     82  37  20 SW14      30.09S
MOUNT POCONO   SUNNY     76  39  26 SW12G22   30.15S
ALLENTOWN      SUNNY     81  45  28 SW15G23   30.11S
QUAKERTOWN*    CLEAR     79  46  31 SW13      30.15S
READING        SUNNY     79  44  28 S12G22    30.11S
LANCASTER      SUNNY     77  45  32 S13       30.12S
COATESVILLE    CLEAR     77  45  31 S9G16     30.17S
POTTSTOWN      SUNNY     79  41  25 SW12      30.15F
BLUE BELL      CLEAR     81  45  28 S10       30.14S
DOYLESTOWN     CLEAR     78  39  24 S10G20    30.13S
WILLOW GROVE   NOT AVBL
NORTH PHILA    CLEAR     82  37  20 SW10G20   30.15F
PHILADELPHIA   PTCLDY    82  40  22 SW15      30.15S
$$


USA.gov is the U.S. government's official web portal to all federal, state and local government web resources and services.